Regional Weather Roundup
Issued by NWS

Home | Current Version | Previous Version | Graphics & Text | Print | Product List | Glossary On
Versions: 1 2 3 4 5 6 7 8 9 10 11 12 13 14 15 16 17 18 19 20 21 22 23 24 25 26 27 28 29 30 31 32 33 34 35 36 37 38 39 40 41 42 43 44 45 46 47 48 49 50
000
ASUS43 KBIS 310402
RWRND

NORTH DAKOTA REGIONAL WEATHER ROUNDUP
NATIONAL WEATHER SERVICE BISMARCK ND
1100 PM CDT THU JUL 30 2015

NOTE: "FAIR" INDICATES FEW OR NO CLOUDS BELOW 12,000 FEET WITH NO
SIGNIFICANT WEATHER AND/OR OBSTRUCTIONS TO VISIBILITY.


NDZ001>003-009>011-017-310500-
NORTHWEST NORTH DAKOTA

CITY           SKY/WX    TMP DP  RH WIND       PRES   REMARKS
WILLISTON      CLEAR     63  49  60 CALM      30.16R
MINOT          PTCLDY    67  46  47 SW6       30.12R
MINOT AFB      CLEAR     56  53  88 W9        30.11S
$$

NDZ018>021-031>035-040>046-310500-
SOUTHWEST NORTH DAKOTA

CITY           SKY/WX    TMP DP  RH WIND       PRES   REMARKS
BISMARCK       CLEAR     65  52  62 CALM      30.15R
DICKINSON      CLEAR     64  48  56 E7        30.18R
GARRISON         N/A     62  54  74 NW5       30.15R
HETTINGER ARPT CLEAR     61  49  64 NE6       30.20R
$$

NDZ004>008-012>016-024-026-027-054-310500-
NORTHEAST NORTH DAKOTA

CITY           SKY/WX    TMP DP  RH WIND       PRES   REMARKS
GRAND FORKS    CLEAR     60  52  74 W8        30.02R
GRND FRKS AFB  CLEAR     63  51  64 W8        30.03S
DEVILS LAKE    CLEAR     61  50  67 NW7       30.07S
$$

NDZ022-023-025-028>030-036>039-047>053-310500-
SOUTHEAST NORTH DAKOTA

CITY           SKY/WX    TMP DP  RH WIND       PRES   REMARKS
FARGO          CLEAR     69  55  60 NW10      30.05R
JAMESTOWN      CLEAR     63  53  70 W7        30.10R
$$




USA.gov is the U.S. government's official web portal to all federal, state and local government web resources and services.